Location: Campo Alegre
(10.1673°N, 67.4431°W)
Time: 13:28:43
(UTC+00:00)

Meteor 1-23 Rocket - Pass Details

Date: 14 April 2024
Orbit: 842 x 882 km, 81.3° (Epoch: 27 May)

Event Time Altitude Azimuth Distance (km) Brightness Sun altitude
Rises 09:46:55 0° 195° (SSW) 3,465 7.1 -8.7°
Reaches altitude 10° 09:49:25 10° 200° (SSW) 2,523 6.4 -8.1°
Maximum altitude 09:54:59 52° 276° (W) 1,066 4.4 -6.8°
Drops below altitude 10° 10:00:30 10° 352° (N) 2,497 6.7 -5.4°
Sets 10:02:58 0° 357° (N) 3,427 7.5 -4.8°
